Weather History for Havre, MT

Change the Weather History Date:

Monday, November 19, 2012

  Actual Average Record
Temperature  
Mean Temperature 38 °F 28 °F  
Max Temperature 54 °F 40 °F 74 °F (1936)
Min Temperature 22 °F 17 °F -27 °F (1896)
Degree Days  
Heating Degree Days 27 37  
Month to date heating degree days 633 613  
Since 1 July heating degree days 1560 1612  
Cooling Degree Days 0 0  
Month to date cooling degree days 0 0  
Year to date cooling degree days 507 387  
Moisture  
Dew Point 26 °F    
Average Humidity 61    
Maximum Humidity 84    
Minimum Humidity 38    
Precipitation  
Precipitation 0.00 in 0.02 in 0.17 in (1883)
Month to date precipitation 0.59 0.29  
Year to date precipitation 12.08 10.66  
Snow  
Snow 0.00 in 0.20 in 4.90 in (1996)
Month to date snowfall 11.5 3.0  
Since 1 July snowfall 13.0 5.3  
Since 1 September snowfall 13.0 5.3  
Snow Depth 2.00 in    
Sea Level Pressure  
Sea Level Pressure 29.88 in    
Wind  
Wind Speed 11 mph (South)    
Max Wind Speed 36 mph    
Max Gust Speed 45 mph    
Visibility 10 miles    
Events      
T = Trace of Precipitation, MM = Missing Value Source: NWS Daily Summary

Daily Weather History Graph

Daily Weather History Graph

Search for Another Location

Airport:

Trip Planner

Search our weather history database for the weather conditions in past years. The results will help you decide how hot, cold, wet, or windy it might be!

Date:

Astronomy

Nov. 19, 2012 Rise Set
Actual Time 7:34 AM MST 4:34 PM MST
Civil Twilight 6:59 AM MST 5:09 PM MST
Nautical Twilight 6:20 AM MST 5:48 PM MST
Astronomical Twilight 5:43 AM MST 6:25 PM MST
Moon 12:27 PM MST (11/19) 11:19 PM MST (11/19)
Length of Visible Light 10h 10m
Length of Day
9h 00m
Waxing Crescent, 41% of the Moon is Illuminated
Nov 19
Waxing Crescent
Nov 20
First Quarter
Nov 28
Full
Dec 6
Last Quarter
Dec 13
New

Hourly Weather History & Observations

Time (MST) Temp. Windchill Dew Point Humidity Pressure Visibility Wind Dir Wind Speed Gust Speed Precip Events Conditions
12:53 AM 27.0 °F 18.7 °F 21.9 °F 81% 30.00 in 10.0 mi WSW 8.1 mph - N/A   Clear
1:53 AM 26.1 °F 17.6 °F 21.0 °F 81% 30.00 in 10.0 mi SW 8.1 mph - N/A   Clear
2:53 AM 27.0 °F 21.6 °F 21.0 °F 78% 29.99 in 10.0 mi West 4.6 mph - N/A   Clear
3:53 AM 25.0 °F 20.7 °F 19.0 °F 78% 29.98 in 10.0 mi NE 3.5 mph - N/A   Clear
4:53 AM 25.0 °F 18.1 °F 19.0 °F 78% 29.97 in 10.0 mi East 5.8 mph - N/A   Clear
5:53 AM 24.1 °F 18.2 °F 18.0 °F 77% 29.97 in 10.0 mi East 4.6 mph - N/A   Clear
6:53 AM 21.9 °F 14.5 °F 17.1 °F 82% 29.96 in 10.0 mi East 5.8 mph - N/A   Clear
7:53 AM 23.0 °F 17.0 °F 18.0 °F 81% 29.95 in 10.0 mi ENE 4.6 mph - N/A   Clear
8:53 AM 28.0 °F 21.7 °F 21.0 °F 75% 29.96 in 10.0 mi ENE 5.8 mph - N/A   Clear
9:53 AM 30.0 °F 23.2 °F 23.0 °F 75% 29.94 in 10.0 mi NE 6.9 mph - N/A   Clear
10:53 AM 33.1 °F 26.9 °F 25.0 °F 72% 29.94 in 10.0 mi NE 6.9 mph - N/A   Clear
11:53 AM 39.9 °F 36.7 °F 28.9 °F 65% 29.89 in 10.0 mi East 4.6 mph - N/A   Clear
12:53 PM 46.9 °F - 28.0 °F 48% 29.89 in 10.0 mi NNW 6.9 mph - N/A   Clear
1:53 PM 48.0 °F - 30.0 °F 50% 29.87 in 10.0 mi Variable 3.5 mph - N/A   Clear
2:53 PM 52.0 °F - 32.0 °F 47% 29.85 in 10.0 mi SW 9.2 mph - N/A   Clear
3:53 PM 46.0 °F - 32.0 °F 58% 29.86 in 10.0 mi Calm Calm - N/A   Clear
4:53 PM 43.0 °F - 30.0 °F 60% 29.84 in 10.0 mi Calm Calm - N/A   Clear
5:53 PM 46.0 °F 40.2 °F 30.0 °F 54% 29.82 in 10.0 mi SSW 12.7 mph - N/A   Clear
6:53 PM 48.0 °F - 30.0 °F 50% 29.79 in 10.0 mi SW 19.6 mph - N/A   Clear
7:53 PM 52.0 °F - 30.0 °F 43% 29.75 in 10.0 mi SSW 23.0 mph 33.4 mph N/A   Clear
8:53 PM 53.1 °F - 28.9 °F 40% 29.73 in 10.0 mi SSW 27.6 mph 35.7 mph N/A   Clear
9:53 PM 53.1 °F - 30.0 °F 41% 29.71 in 10.0 mi SSW 29.9 mph 38.0 mph N/A   Clear
10:53 PM 53.1 °F - 30.9 °F 43% 29.70 in 10.0 mi SSW 32.2 mph 39.1 mph N/A   Clear
11:53 PM 53.1 °F - 30.9 °F 43% 29.73 in 10.0 mi SSW 20.7 mph 29.9 mph N/A   Clear